Regional Weather Roundup
Issued by NWS

Home | Current Version | Previous Version | Text Only | Print | Product List | Glossary On
Versions: 1 2 3 4 5 6 7 8 9 10 11 12 13 14 15 16 17 18 19 20 21 22 23 24 25 26 27 28 29 30 31 32 33 34 35 36 37 38 39 40 41 42 43 44 45 46 47 48 49 50
000
ASUS42 KTBW 231510
RWRFL
FLORIDA REGIONAL WEATHER ROUNDUP
NATIONAL WEATHER SERVICE TAMPA BAY RUSKIN FL
1100 AM EDT SAT AUG 23 2014

NOTE: "FAIR" INDICATES FEW OR NO CLOUDS BELOW 12,000 FEET WITH NO
SIGNIFICANT WEATHER AND/OR OBSTRUCTIONS TO VISIBILITY.


FLZ001>010-012>015-112-114-115-231600-
PANHANDLE FLORIDA

CITY           SKY/WX    TMP DP  RH WIND       PRES   REMARKS
PENSACOLA      SUNNY     89  74  60 N7        30.01S HX  98
PENSACOLA NAS  MOSUNNY   93  74  53 N9        30.00F HX 103
MILTON NAS     SUNNY     90  73  57 VRB5      30.02S HX  98
CRESTVIEW      SUNNY     92  74  55 N6        30.03F HX 101
DUKE FIELD     FAIR      91  77  64 N8        30.02S HX 104
VALPARAISO     MOSUNNY   92  75  57 N8        30.01S HX 102
MARY ESTHER    SUNNY     92  70  49 N9        30.00S HX  97
TRI COUNTY     FAIR      91  75  59 NW5       30.01F HX 101
PANAMA CITY    FAIR      91  75  59 N12       30.00S HX 101
TYNDALL AFB    SUNNY     89  79  71 N8        30.01S HX 104
APALACHICOLA   SUNNY     92  78  63 N7        30.00R HX 107

STATION/POSITION SKY/WX   TEMP    WIND        PRES    WAVE   SWELL
                          AIR SEA DIR/SP/G            HT/PER HT/PER
                          (F)     (DEG/KT/KT) (MB)    (FT/S) (FT/S)
30.1N   87.6W              85 86  340/  8/  8 1016.4R   1/ 5
29.2N   88.2W              86 88  340/ 10/ 14 1016.9S
28.8N   86.0W              86 88  330/  8/ 10 1016.4R   1/ 2
PANAMA CITY BEAC           89 83  320/  5/  6 1016.1R
CAPE SAN BLAS    NOT AVBL
TOWER C                    84     320/  8/  8 1016.0R
28.5N   84.5W              86 87  340/  8/  8 1016.2R   1/ 8

$$
FLZ011-016>038-118-127-128-134-139-239-231600-
NORTH FLORIDA

CITY           SKY/WX    TMP DP  RH WIND       PRES   REMARKS
MARIANNA       SUNNY     91  76  61 NW7       30.00S HX 103
TALLAHASSEE    SUNNY     93  73  52 N6        30.00S HX 102
PERRY          SUNNY     90  73  58 N3        30.00S HX  98
CROSS CITY       N/A     91  77  63 VRB6      29.99S HX 104
GAINESVILLE    SUNNY     89  75  63 NW8       29.99S HX  99
MAYPORT NAS    MOSUNNY   91  76  61 VRB5      29.96S HX 103
JACKSONVILLE   PTSUNNY   90  76  63 NW7       29.96F HX 101
JAX NAS        MOSUNNY   93  74  53 N7        29.98S HX 103
JAX CRAIG      SUNNY     91  75  59 NW7       29.97S HX 101
JAX CECIL      SUNNY     91  75  59 CALM      29.97S HX 102
FERNANDINA BEA FAIR      91  73  55 NW6       29.95S HX 100
ST AUGUSTINE   SUNNY    N/A N/A N/A W6        29.97F

STATION/POSITION SKY/WX   TEMP    WIND        PRES    WAVE   SWELL
                          AIR SEA DIR/SP/G            HT/PER HT/PER
                          (F)     (DEG/KT/KT) (MB)    (FT/S) (FT/S)
SHELL POINT                84     350/  7/ 10   N/A
KEATON BEACH               86     270/  4/  5 1015.9S
CEDAR KEY                  87     350/  2/  3 1016.0R
FERNANDINA                 88 85  290/  5/  7 1014.1F
30.7N   81.3W                 83                N/A     1/ 9
MAYPORT                    88 83  290/  7/  9   N/A
31.4N   80.9W              86 85  310/  8/ 10 1014.4R   1/ 3
ST AUGUSTINE               89     280/  5/  7 1015.7S

$$
FLZ040-043>046-052-053-057-058-063-144-231600-
INTERIOR CENTRAL FLORIDA

CITY           SKY/WX    TMP DP  RH WIND       PRES   REMARKS
OCALA          SUNNY     88  75  66 W5        30.00S HX  97
LEESBURG       SUNNY     89  76  65 SW5       30.01R HX 100
SANFORD        SUNNY     89  77  67 VRB6      29.99R HX 101
ORLANDO EXEC   SUNNY     89  75  63 W6        29.99S HX  99
ORLANDO INTL   MOSUNNY   89  73  59 W6        29.99S HX  97
KISSIMMEE      SUNNY     88  75  66 CALM      30.00R HX  97
WINTER HAVEN   SUNNY     89  73  59 VRB3      30.01S HX  97
LAKELAND       SUNNY     86  73  66 CALM        N/A
BARTOW         MOSUNNY   86  72  62 W6        30.01R
OKEECHOBEE     SUNNY     86  75  70 MISG      29.99F HX  95

$$
FLZ041-047-054-059-064-141-147-231600-
EAST CENTRAL FLORIDA

CITY           SKY/WX    TMP DP  RH WIND       PRES   REMARKS
ORMOND BEACH   SUNNY     86  75  70 W6        29.98S HX  95
DAYTONA BEACH  MOSUNNY   90  75  61 NW10      29.98S HX 100
DELAND         SUNNY     88  75  66 W5        30.00S HX  97
JFK SPACE CTR  SUNNY     88 N/A N/A NW5       29.98S
TITUSVILLE     SUNNY     88  73  62 W8        29.99S HX  96
CAPE CANAVERAL SUNNY     88  76  69 W6        29.98S HX  98
PATRICK AFB    SUNNY     84  77  79 SE8       30.00S
MELBOURNE      MOSUNNY   88  75  65 W5        29.98S HX  97
VERO BEACH     MOSUNNY   87  74  64 NW8       29.98F HX  95
FT PIERCE      MOSUNNY   89  72  56 NW6       29.98F HX  96
STUART         MOSUNNY   86  72  62 CALM      29.99S

STATION/POSITION SKY/WX   TEMP    WIND        PRES    WAVE   SWELL
                          AIR SEA DIR/SP/G            HT/PER HT/PER
                          (F)     (DEG/KT/KT) (MB)    (FT/S) (FT/S)
28.5N   80.2W              82 85  250/  8/  8 1015.6R
28.9N   78.5W              84 86  230/  4/  6 1015.5R   2/ 7   2/ 7
TRIDENT PIER               87 83  250/  4/  6 1014.9R
28.4N   80.5W                 83                N/A     1/ 6
27.6N   80.2W                 84                N/A     1

$$
FLZ050-056-061-142-242-148-248-149-249-151-251-155-255-
160-260-231600-
WEST CENTRAL FLORIDA

CITY           SKY/WX    TMP DP  RH WIND       PRES   REMARKS
CRYSTAL RIVER  FAIR      90  73  58 N7        30.00S HX  98
INVERNESS      FAIR      88  66  48 CALM      30.00S
BROOKSVILLE    SUNNY     91  77  63 N6        30.01R HX 104
ZEPHYRHILLS    FAIR      88  73  62 N5        30.01S HX  96
CLEARWATER     SUNNY     88  75  65 NE6       29.99S HX  97
TAMPA INTL     MOSUNNY   89  74  60 N8        30.00S HX  98
TAMPA EXEC     SUNNY     90  77  66 CALM      30.00S HX 102
MACDILL AFB    SUNNY     92  78  62 VRB5      30.00R HX 107
ST PETERSBURG  SUNNY     88  75  65 E7        29.98S HX  97
SARASOTA       SUNNY     95  73  48 N6        29.98S HX 104
VENICE           N/A    N/A N/A N/A MISG        N/A

STATION/POSITION SKY/WX   TEMP    WIND        PRES    WAVE   SWELL
                          AIR SEA DIR/SP/G            HT/PER HT/PER
                          (F)     (DEG/KT/KT) (MB)    (FT/S) (FT/S)
CEDAR KEY                  87     350/  2/  3 1016.0R
28.5N   84.5W              86 87  340/  8/  8 1016.2R   1/ 8
27.3N   84.3W                 88                N/A     1/ 8
CLEARWATER BEACH           87 89  350/  5/  6 1015.4R
MIDDLE TAMPA BAY           84      60/  5/  6 1015.9R
VENICE                     85 89  310/  5/  6 1015.3R

$$
FLZ066-069-070-075>078-162-262-165-265-231600-
SOUTHWEST FLORIDA AND KEYS

CITY           SKY/WX    TMP DP  RH WIND       PRES   REMARKS
PUNTA GORDA    SUNNY     88  75  65 CALM      30.01S HX  97
FT MYERS       SUNNY     88  75  65 CALM      29.98S HX  97
SOUTHWEST INTL SUNNY     87  74  64 SW3       29.99S HX  95
NAPLES         SUNNY     89  74  60 N5        29.98S HX  98
MARCO ISLAND   SUNNY     88  73  62 NE5       29.99S HX  96
MARATHON       SUNNY     88  77  69 NE8       29.96S HX 100
KEY WEST NAS   MOSUNNY   91  73  55 N9        29.97R HX  99
KEY WEST INTL  SUNNY     90  74  59 NE7       29.98R HX  99

STATION/POSITION SKY/WX   TEMP    WIND        PRES    WAVE   SWELL
                          AIR SEA DIR/SP/G            HT/PER HT/PER
                          (F)     (DEG/KT/KT) (MB)    (FT/S) (FT/S)
VENICE                     85 89  310/  5/  6 1015.3R
NAPLES                     86     310/  4/  5 1015.9S
DRY TORTUGAS               85      10/  6/  7 1015.2R
NW FL BAY                  84      50/  6/  8 1014.8R
SAND KEY                   85      50/  6/  7 1015.0R
SOMBRERO KEY               85      30/  9/ 10 1015.2F
LONG KEY                   85 88   20/  7/  9 1015.3R
MOLASSES REEF              85 87   60/  9/ 10 1014.7R

$$
FLZ067-068-071>074-168-172>174-231600-
SOUTHEAST FLORIDA

CITY           SKY/WX    TMP DP  RH WIND       PRES   REMARKS
W PALM BEACH   MOSUNNY   88  73  61 N8        29.97S HX  95
FT LAUDER-EXEC LGT RAIN  80  76  87 SW7       29.98R
FT LAUDERDALE  MOSUNNY   90  73  57 NE8       29.97S HX  98
POMPANO BEACH  MOSUNNY   91  75  59 NE8       29.98R HX 101
PEMBROKE PINES MOSUNNY   88  74  63 N12       29.98S HX  96
OPA LOCKA      MOSUNNY   90  71  53 N10       29.98R HX  96
MIAMI          MOSUNNY   89  72  56 NE8       29.97S HX  96
WEST KENDALL   MOSUNNY   90  73  57 NE7       29.98R HX  98
HOMESTEAD      DRIZZLE   88  75  66 NE10      29.97S HX  97

STATION/POSITION SKY/WX   TEMP    WIND        PRES    WAVE   SWELL
                          AIR SEA DIR/SP/G            HT/PER HT/PER
                          (F)     (DEG/KT/KT) (MB)    (FT/S) (FT/S)
PORT EVERGLADES            85      20/  3/  5 1015.1
VIRGINIA KEY               86 88   60/  6/  9   N/A
LAKE WORTH                 84 86   20/  6/  7 1015.0F
FOWEY ROCKS                85 88   20/ 10/ 10 1015.2R
SETTLEMENT POINT           85      50/  5/  6 1015.7S

$$



USA.gov is the U.S. government's official web portal to all federal, state and local government web resources and services.